Location: Unspecified
(51.0950°N, 12.9690°E)
Time: 14:31:37
(UTC+00:00)

CUBEBUG 2 - Pass Details

Date: 30 April 2024
Orbit: 570 x 668 km, 97.8° (Epoch: 25 May)

Event Time Altitude Azimuth Distance (km) Brightness Sun altitude
Rises 00:37:51 0° 22° (NNE) 2,811 ? -21.0°
Reaches altitude 10° 00:40:14 10° 35° (NE) 1,917 ? -20.9°
Maximum altitude 00:43:50 28° 95° (E) 1,125 ? -20.6°
Enters shadow 00:45:40 21° 135° (SE) 1,380 ? -20.5°
